Home > Weather > Bruchsal > Past weeks

Flag for Germany Past Weather in Bruchsal, Baden-Württemberg, Germany — Yesterday and Last 2 Weeks

Now
70 °F

Overcast.


Feels Like: 70 °F
Forecast: 58 / 75 °F
Wind: 5 mph from South

Location: Mannheim City

Current Time: Jun 28, 2016 at 8:52:43 PM

Latest Report: Jun 28, 2016 at 8:20 PM


Visibility: N/A

Pressure: 29.98 "Hg

Humidity: 73%

Dew Point: 61 °F

Location of BruchsalLocation

Past Weather in Bruchsal — Graph

°F

Bruchsal Temperature Yesterday

Maximum temperature yesterday: 70 °F (at 3:50 PM)
Minimum temperature yesterday: 55 °F (at 5:50 AM)
Average temperature yesterday: 66 °F

High & Low Weather Summary for the Past Weeks

 TemperatureHumidityPressure
High93 °F (Jun 23, 5:50 PM)100% (Jun 14, 7:50 PM)30.24 "Hg (Jun 14, 7:50 PM)
Low52 °F (Jun 20, 5:20 AM)32% (Jun 23, 7:20 PM)29.53 "Hg (Jun 14, 2:20 PM)
Average68 °F72%29.97 "Hg
* Reported Jun 13 7:20 PM — Jun 28 7:20 PM, Bruchsal, Weather by CustomWeather, © 2016

Note: Actual official high and low records may vary slightly from our data, if they occured in-between our weather recording intervals... More about our weather records

Advertising

Bruchsal Weather History for the Previous 24 Hours

Scroll right to see more
 ConditionsComfort  
Time TempWeatherWind HumidityBarometerVisibility
7:20 PM
Tue, Jun 28
70 °FSunny.3 mph64%29.98 "Hg10 mi
6:50 PM70 °FSunny.3 mph64%29.98 "Hg10 mi
6:20 PM70 °FPassing clouds.5 mph64%30.01 "HgN/A
5:50 PM72 °FSunny.3 mph65%30.01 "Hg10 mi
5:20 PM70 °FSunny.3 mph73%30.01 "Hg10 mi
4:50 PM68 °FBroken clouds.5 mph78%30.04 "HgN/A
4:20 PM68 °FBroken clouds.6 mph78%30.04 "HgN/A
3:50 PM68 °FBroken clouds.6 mph83%30.04 "HgN/A
3:20 PM68 °FLight rain. Partly sunny.5 mph83%30.04 "HgN/A
2:50 PM68 °FPartly sunny.6 mph83%30.04 "HgN/A
2:20 PM68 °FScattered showers. Broken clouds.5 mph78%30.07 "HgN/A
1:50 PM68 °FScattered showers. Broken clouds.2 mph73%30.07 "HgN/A
1:20 PM68 °FPartly sunny.2 mph73%30.07 "HgN/A
12:50 PM68 °FScattered showers. Scattered clouds.3 mph73%30.07 "HgN/A
12:20 PM68 °FScattered showers. Broken clouds.5 mph78%30.07 "Hg6 mi
11:50 AM64 °FBroken clouds.5 mph88%30.09 "HgN/A
11:20 AM63 °FScattered showers. Broken clouds.9 mph100%30.09 "HgN/A
10:50 AM66 °FScattered showers. Partly sunny.2 mph88%30.09 "HgN/A
10:20 AM63 °FLight rain. Partly sunny.5 mph100%30.09 "HgN/A
9:50 AM63 °FLight rain. Partly sunny.3 mph94%30.09 "Hg4 mi
9:20 AM64 °FScattered showers. Broken clouds.3 mph78%30.09 "HgN/A
8:50 AM66 °FBroken clouds.3 mph73%30.09 "HgN/A
8:20 AM64 °FPartly sunny.3 mph83%30.09 "HgN/A
7:50 AM64 °FBroken clouds.3 mph83%30.09 "HgN/A
7:20 AM64 °FPartly sunny.2 mph83%30.09 "HgN/A
6:50 AM63 °FPartly sunny.2 mph88%30.09 "HgN/A
6:20 AM63 °FPassing clouds.No wind100%30.09 "HgN/A
5:50 AM61 °FClear.2 mph100%30.09 "Hg10 mi
8:50 PM
Mon, Jun 27
68 °FPassing clouds.8 mph64%30.12 "HgN/A
8:20 PM68 °FPassing clouds.6 mph64%30.12 "HgN/A
Weather by CustomWeather, © 2016

See weather overviewHow to use our weather pages